Other Surface Observations
Issued by NWS

Home | Current Version | Previous Version | Text Only | Print | Product List | Glossary On
Versions: 1 2 3 4 5 6 7 8 9 10 11 12 13 14 15 16 17 18 19 20 21 22 23 24 25 26 27 28 29 30 31 32 33 34 35 36 37 38 39 40 41 42 43 44 45 46 47 48 49 50
000
SXUS52 KTAE 191018
OSOTAE
OSOTAE
North Florida/South Alabama/Southwest Georgia Weather Roundup
National Weather Service Tallahassee Florida
500 AM EST THU JAN 19 2017

Note: "fair" indicates few or no clouds below 12,000 feet with no
significant weather and/or obstructions to visibility.

!FLZ017-115-028-034-025-191100
...North Florida...

CITY           SKY/WX    TMP DP  RH WIND       PRES   REMARKS
TALLAHASSEE    FOG       61  61 100 CALM      30.05F VSB 1/4
APALACHICOLA   CLOUDY    61  61 100 CALM      30.05S
PERRY          FOG       64  64  97 CALM      30.06S VSB<1/4
CROSS CITY     FOG       59  59 100 CALM      30.06S VSB 1/4
JACKSONVILLE   FOG       61  61 100 W5        30.05R VSB 1/8
$$

!FLZ112-006-005-002-011-191100
...Florida Panhandle...

CITY           SKY/WX    TMP DP  RH WIND       PRES   REMARKS
MARIANNA       FOG       56  56 100 CALM      30.04F VSB 1/4
BONIFAY        NOT AVBL
PANAMA CITY NW FOG       61  60  97 CALM      30.03S VSB 1/4
TYNDALL AFB    FOG       62  62 100 CALM      30.04F VSB 0
TYND DRONE APT FOG       61  62 100 SE5       30.04F VSB 3/8
DE FUNIAK SPR  FOG       60  60 100 CALM      30.05S VSB 1/4
EGLIN AFB      FOG       64  64 100 CALM      30.03F VSB 1/4
DESTIN         FOG       66  66 100 CALM      30.03F VSB 1/4
HURLBURT       FOG       64  60  87 CALM      30.02F VSB 1/4
CRESTVIEW      FOG       59  58  96 CALM      30.04F VSB 1/4
PENSACOLA      FOG       67  65  93 CALM      30.01F VSB 1/2
$$

!ALZ063-066-191100
...South Alabama...

CITY           SKY/WX    TMP DP  RH WIND       PRES   REMARKS
DOTHAN         FOG       55  55 100 CALM      30.07F VSB 1/2
OZARK CAIRNS   FOG       57  57 100 CALM      30.04S VSB 3/4
FT RUCKER HELI CLOUDY    56  55  97 CALM      30.04F
RUCKER HELI 3  NOT AVBL
RUCKER HELI 2  FOG       57  55  93 CALM      30.04F VSB 1/4
FLORALA APT    FOG       58  57  97 CALM      30.05F VSB 1/2
ANDALUSIA      FOG       60  58  92 CALM      30.03F VSB 1/4
TROY           FOG       54  54 100 CALM      30.05F VSB 1/4
EUFALA         FOG       52  51  97 CALM      30.03F VSB 1/4
MOBILE         FOG       68  67  96 SE9       30.00F VSB 1/4
$$

!GAZ120>161-191100
...Southwest and South Central Georgia...

CITY           SKY/WX    TMP DP  RH WIND       PRES   REMARKS
THOMASVILLE    FOG       55  55 100 CALM      30.07S VSB 1/4
BAINBRIDGE     CLOUDY    54  52  94 CALM      30.05F VSB 1/2
MOODY AFB      FOG       56  56 100 S5        30.04S VSB 1/4
VALDOSTA       FOG       56  56 100 CALM      30.06S VSB 1/4
MOULTRIE       FOG       55  54  94 CALM      30.06F VSB 1/2
BLAKELY        CLEAR     54  52  94 CALM      30.05F
ALBANY         CLOUDY    52  52 100 CALM      30.07S
TIFTON         FAIR      53  53 100 CALM      30.05S
FITZGERALD     FAIR      56  56 100 CALM      30.07S
CORDELE        FAIR      54  53  96 CALM      30.06S
AMERICUS       FAIR      52  52 100 CALM      30.06F
HOMERVILLE     FOG       52  52 100 CALM      30.05S VSB 3/4
$$

!GMZ750-755-770-775-191100
...Coastal and Buoy Obs...

STATION/POSITION TIME  TEMP    WIND        PRES    VSBY  WAVE
                       AIR SEA DIR/SP/G                  HT/PER
                 (UTC) (F)     (DEG/KT/KT) (MB)    (MI)  (FT/S)
KEATON BEACH     1000   64      CALM  /  1 1017.3F
CEDAR KEY        1000   67     260/  3/  5 1018.0F
C TOWER          1000   69     210/  5/  5 1018.0F
APALACHICOLA BUO 0950   73 73  230/  2/  2 1017.6F         1/ 5
PANAMA CITY BUOY 0950   74 75              1017.4F         2/ 6
MOBILE BUOY      NOT AVBL
ORANGE BCH AL BU 0950   68 65  140/  4/  6 1016.2F         2/ 6
$$




USA.gov is the U.S. government's official web portal to all federal, state and local government web resources and services.